DECAYED

CZ-6A DEB, 54494 (Decayed)

Orbit data source: Space-Track

CZ-6A DEB, 54494 was space debris in SSO originally from a launch on Fri, 11 Nov 2022 UTC launched from the Taiyaun Space Center, China (TSC). Debris objects in space refer to the collection of defunct objects orbiting the Earth. Examples of debris include non-operational satellites, rocket bodies, and fragments generated from explosions, collisions, or faulty payload assembly.

Not visible in the next 10 days
Identifier
54494, 2022-151HW
Orbit
Decayed
Country
Flag of CNCN / PRC
Related business
Manufacturer
SAST
Mission
Decayed spacecraft
Bus & Motor
Unknown
Mass
Unknown
Launch date (UTC)
2022-11-11 (4 years ago)
Launch vehicle
Unknown
Launch site
Taiyaun Space Center, China (TSC)
Object type
Payload
Rocket body
Debris
Shape & HBR
Unknown shape, 0.1 m
Radar Cross Section
Medium (>0.1 m² and <1 m²)

Expand to show TLE details & history
Last TLE update: 2 years ago

TLE from 2 years ago
0 CZ-6A DEB
1 54494U 22151HW  25055.18750918  .04367505  00000-0  31838-1 0  9997
2 54494  98.9293 148.3842 0028982 295.4385  64.3873 15.68877840 49584
Epoch: 2025-02-24T04:30Z
TLE epoch observation values (Epoch: 2025-02-24T04:30:00.793Z)
Latitude
-0.00002°
Longitude
-73.42844°
Altitude
356.816 km
Speed
7.7 km/s
True Right ascension
09h 53m 32s
True Declination
0° 00' 00"
Sunlit
Object was in full shadow at epoch
Visualization orbit readout
Latitude
Unknown
Longitude
Unknown
Altitude
Unknown
Speed
Unknown
Apparent Right ascension
Unknown
Apparent Declination
Unknown
Sunlit
N/A
Visualization observer readout
Local Sidereal Time
14:07:48
Azimuth
Unknown
Elevation
Unknown
Doppler factor
Unknown
Orbital elements
Apogee altitude
378.609 km
Perigee altitude
339.558 km
Semi-major axis
6,737.22 km
Eccentricity
0.0029
Inclination
98.9293°
RAAN
148.3842°
Arg. of periapsis
295.4385°
True anomaly
64.68724°
Mean anomaly
64.3873°
Eccentric anomaly
64.53722°
Mean motion
3.92484 °/min
Orbital period
91.72 mins
BSTAR
0.031838
Loading maneuver chart data...
Computing Atmospheric mass density...
Loading historical data...
Loading historical data...
Loading historical data...
Loading historical data...
Loading historical data...
Loading historical data...
Loading historical data...

Documentation

Showing up to 5 results
|